User: anonymous   Login
Location: Colle Santa Colomba
(42.0333°N, 12.5667°E)
Time: 13:51:23
(UTC+00:00)
Language:

Cosmos 2322 - Orbit

View from above orbital plane
View from above orbital plane
View from above satellite
View from above satellite

Ground track
Ground track

The orbit data is extracted from the following two-line orbital elements,

1 23704U 95058A   22019.54049144  .00000346  00000-0  20895-3 0  9998
2 23704  70.9869 127.9265 0007822  71.1429 289.0540 14.13453336352643
Epoch (UTC): 19 January 2022 12:58:18
Eccentricity: 0.0007822
inclination: 70.9869°
perigee height: 842 km
apogee height: 853 km
right ascension of ascending node: 127.9265°
argument of perigee: 71.1429°
revolutions per day: 14.13453336
mean anomaly at epoch: 289.0540°
orbit number at epoch: 35264

The dashed part of the orbit path shows where the satellite is in the earth's shadow,  

DLR